Location: Guadanolo
(41.9167°N, 12.9333°E)
Time: 15:49:58
(UTC+00:00)

Cosmos 2227 Rocket - Pass Details

Date: 16 September 2019
Orbit: 837 x 847 km, 71.0° (Epoch: 16 October)

Event Time Altitude Azimuth Distance (km) Brightness Sun altitude
Exits shadow 21:20:24 17° 283° (WNW) 2,033 4.5 -39.9°
Maximum altitude 21:22:28 20° 310° (NW) 1,863 4.5 -40.1°
Drops below altitude 10° 21:26:33 10° 356° (N) 2,473 5.2 -40.5°
Sets 21:29:43 0° 14° (NNE) 3,413 5.8 -40.8°
